SB KEPS @ AMSAT $ORB09239.O Orbital Elements 09239.OSCAR
HR AMSAT ORBITAL ELEMENTS FOR OSCAR SATELLITES FROM WA5QGD FORT WORTH,TX August 27, 2009 Send Subscribe/unsubscribe to KEPS at http://www.amsat.org/mailman/listinfo/keps BID: ORB09239.O TO ALL RADIO AMATEURS BT
Satellite: AO-07 Catalog number: 07530 Epoch time: 09238.63762737 Element set: 0567 Inclination: 101.4244 deg RA of node: 260.7228 deg Eccentricity: 0.0011998 Arg of perigee: 129.7555 deg Mean anomaly: 230.4575 deg Mean motion: 12.53576366 rev/day Decay rate: -2.7e-07 rev/day^2 Epoch rev: 59154 Checksum: 323
Satellite: FO-29 Catalog number: 24278 Epoch time: 09238.70138952 Element set: 0144 Inclination: 098.5407 deg RA of node: 103.2280 deg Eccentricity: 0.0350781 Arg of perigee: 167.5123 deg Mean anomaly: 193.4994 deg Mean motion: 13.52944142 rev/day Decay rate: -4.7e-07 rev/day^2 Epoch rev: 64328 Checksum: 318
Satellite: SO-33 Catalog number: 25509 Epoch time: 09239.62892878 Element set: 528 Inclination: 031.4363 deg RA of node: 008.5213 deg Eccentricity: 0.0355000 Arg of perigee: 243.1584 deg Mean anomaly: 113.2341 deg Mean motion: 14.28263556 rev/day Decay rate: -3.2e-07 rev/day^2 Epoch rev: 56605 Checksum: 290
Satellite: RS-22 Catalog number: 27939 Epoch time: 09239.65378621 Element set: 875 Inclination: 097.9320 deg RA of node: 111.8822 deg Eccentricity: 0.0012530 Arg of perigee: 268.0525 deg Mean anomaly: 091.9241 deg Mean motion: 14.63336805 rev/day Decay rate: 3.5e-07 rev/day^2 Epoch rev: 31602 Checksum: 303
Satellite: VO-52 Catalog number: 28650 Epoch time: 09238.69188178 Element set: 0307 Inclination: 097.7356 deg RA of node: 297.9216 deg Eccentricity: 0.0027645 Arg of perigee: 157.0500 deg Mean anomaly: 203.1933 deg Mean motion: 14.81613852 rev/day Decay rate: 1.36e-06 rev/day^2 Epoch rev: 23308 Checksum: 319
/EX SB KEPS @ AMSAT $ORB09239.D Orbital Elements 09239.MICROS
HR AMSAT ORBITAL ELEMENTS FOR THE MICROSATS FROM WA5QGD FORT WORTH,TX August 27, 2009 Send Subscribe/unsubscribe to KEPS at http://www.amsat.org/mailman/listinfo/keps BID: ORB09239.D TO ALL RADIO AMATEURS BT
Satellite: AO-16 Catalog number: 20439 Epoch time: 09238.85375405 Element set: 0688 Inclination: 098.2861 deg RA of node: 204.0664 deg Eccentricity: 0.0010565 Arg of perigee: 325.8987 deg Mean anomaly: 034.1520 deg Mean motion: 14.31831528 rev/day Decay rate: 6.0e-08 rev/day^2 Epoch rev: 02326 Checksum: 303
Satellite: LO-19 Catalog number: 20442 Epoch time: 09238.61969244 Element set: 601 Inclination: 098.2490 deg RA of node: 210.8324 deg Eccentricity: 0.0011126 Arg of perigee: 321.3498 deg Mean anomaly: 038.6871 deg Mean motion: 14.32066211 rev/day Decay rate: -2.8e-07 rev/day^2 Epoch rev: 2339 Checksum: 283
Satellite: AO-27 Catalog number: 22825 Epoch time: 09239.27164723 Element set: 325 Inclination: 098.4438 deg RA of node: 190.4771 deg Eccentricity: 0.0009184 Arg of perigee: 058.7518 deg Mean anomaly: 301.4576 deg Mean motion: 14.29271462 rev/day Decay rate: -2.6e-07 rev/day^2 Epoch rev: 83006 Checksum: 315
Satellite: IO-26 Catalog number: 22826 Epoch time: 09238.54938937 Element set: 0055 Inclination: 098.4352 deg RA of node: 190.4953 deg Eccentricity: 0.0009770 Arg of perigee: 056.1619 deg Mean anomaly: 304.0492 deg Mean motion: 14.29523937 rev/day Decay rate: -3.4e-07 rev/day^2 Epoch rev: 83006 Checksum: 324
Satellite: GO-32 Catalog number: 25397 Epoch time: 09238.58980330 Element set: 974 Inclination: 098.3242 deg RA of node: 257.1556 deg Eccentricity: 0.0002088 Arg of perigee: 063.7784 deg Mean anomaly: 296.3620 deg Mean motion: 14.23163141 rev/day Decay rate: 6.2e-07 rev/day^2 Epoch rev: 57814 Checksum: 319
Satellite: NO-44 Catalog number: 26931 Epoch time: 09238.59656895 Element set: 0251 Inclination: 067.0500 deg RA of node: 242.9487 deg Eccentricity: 0.0006610 Arg of perigee: 277.0944 deg Mean anomaly: 082.9414 deg Mean motion: 14.29565242 rev/day Decay rate: 1.25e-06 rev/day^2 Epoch rev: 41264 Checksum: 315
Satellite: SO-50 Catalog number: 27607 Epoch time: 09238.87040949 Element set: 968 Inclination: 064.5582 deg RA of node: 170.4145 deg Eccentricity: 0.0059503 Arg of perigee: 188.3624 deg Mean anomaly: 171.6506 deg Mean motion: 14.71454342 rev/day Decay rate: -5.5e-07 rev/day^2 Epoch rev: 35907 Checksum: 326
Satellite: CO-55 Catalog number: 27844 Epoch time: 09239.61959286 Element set: 653 Inclination: 098.7142 deg RA of node: 247.7805 deg Eccentricity: 0.0009327 Arg of perigee: 302.7348 deg Mean anomaly: 057.2933 deg Mean motion: 14.20652776 rev/day Decay rate: 3.1e-07 rev/day^2 Epoch rev: 31940 Checksum: 331
Satellite: CO-57 Catalog number: 27848 Epoch time: 09239.53668541 Element set: 603 Inclination: 098.7175 deg RA of node: 246.7610 deg Eccentricity: 0.0009243 Arg of perigee: 306.7848 deg Mean anomaly: 053.2477 deg Mean motion: 14.20453160 rev/day Decay rate: 3.1e-07 rev/day^2 Epoch rev: 31935 Checksum: 318
Satellite: AO-51 Catalog number: 28375 Epoch time: 09238.52937626 Element set: 0472 Inclination: 098.0536 deg RA of node: 244.0372 deg Eccentricity: 0.0083296 Arg of perigee: 272.3239 deg Mean anomaly: 086.8421 deg Mean motion: 14.40650227 rev/day Decay rate: -1.0e-08 rev/day^2 Epoch rev: 27108 Checksum: 307
Satellite: CO-56 Catalog number: 28941 Epoch time: 09239.68927910 Element set: 386 Inclination: 098.1346 deg RA of node: 068.1196 deg Eccentricity: 0.0063046 Arg of perigee: 219.1428 deg Mean anomaly: 140.5340 deg Mean motion: 15.93776941 rev/day Decay rate: 8.9558e-04 rev/day^2 Epoch rev: 19860 Checksum: 361
Satellite: GENESAT1 Catalog number: 29655 Epoch time: 09239.90845948 Element set: 792 Inclination: 040.0227 deg RA of node: 093.4594 deg Eccentricity: 0.0004595 Arg of perigee: 309.7536 deg Mean anomaly: 050.2882 deg Mean motion: 15.66966792 rev/day Decay rate: 8.419e-05 rev/day^2 Epoch rev: 15372 Checksum: 351
Satellite: CP3 Catalog number: 31129 Epoch time: 09239.14389228 Element set: 154 Inclination: 097.9840 deg RA of node: 288.8036 deg Eccentricity: 0.0103584 Arg of perigee: 065.5151 deg Mean anomaly: 295.6801 deg Mean motion: 14.52157399 rev/day Decay rate: 6.2e-07 rev/day^2 Epoch rev: 12518 Checksum: 317
Satellite: CO-65 Catalog number: 32785 Epoch time: 09239.24489791 Element set: 456 Inclination: 097.9390 deg RA of node: 302.6037 deg Eccentricity: 0.0015290 Arg of perigee: 156.5319 deg Mean anomaly: 203.6592 deg Mean motion: 14.81511318 rev/day Decay rate: 3.3e-07 rev/day^2 Epoch rev: 7196 Checksum: 323
Satellite: KKS-1 Catalog number: 33493 Epoch time: 09239.79788585 Element set: 698 Inclination: 098.0622 deg RA of node: 352.3406 deg Eccentricity: 0.0020460 Arg of perigee: 014.0922 deg Mean anomaly: 346.0855 deg Mean motion: 14.80718348 rev/day Decay rate: 1.75e-06 rev/day^2 Epoch rev: 3206 Checksum: 315
Satellite: SOHLA-1 Catalog number: 33496 Epoch time: 09239.68113880 Element set: 663 Inclination: 098.0422 deg RA of node: 347.8913 deg Eccentricity: 0.0007881 Arg of perigee: 059.8643 deg Mean anomaly: 300.3346 deg Mean motion: 14.69444044 rev/day Decay rate: 1.8e-07 rev/day^2 Epoch rev: 3177 Checksum: 315
/EX SB KEPS @ AMSAT $ORB09239.W Orbital Elements 09239.WEATHER
HR AMSAT ORBITAL ELEMENTS FOR WEATHER SATELLITES FROM WA5QGD FORT WORTH,TX August 27, 2009 Send Subscribe/unsubscribe to KEPS at http://www.amsat.org/mailman/listinfo/keps BID: ORB09239.W TO ALL RADIO AMATEURS BT
Satellite: NOAA-10 Catalog number: 16969 Epoch time: 09238.60533939 Element set: 0737 Inclination: 098.6883 deg RA of node: 264.8610 deg Eccentricity: 0.0012418 Arg of perigee: 355.9497 deg Mean anomaly: 004.1574 deg Mean motion: 14.27392975 rev/day Decay rate: 2.1e-07 rev/day^2 Epoch rev: 19355 Checksum: 343
Satellite: NOAA-11 Catalog number: 19531 Epoch time: 09238.78187791 Element set: 0756 Inclination: 098.7828 deg RA of node: 327.6423 deg Eccentricity: 0.0010807 Arg of perigee: 267.9950 deg Mean anomaly: 091.9975 deg Mean motion: 14.14902506 rev/day Decay rate: 1.01e-06 rev/day^2 Epoch rev: 07950 Checksum: 337
Satellite: NOAA-12 Catalog number: 21263 Epoch time: 09238.92524832 Element set: 0248 Inclination: 098.7740 deg RA of node: 247.0230 deg Eccentricity: 0.0011666 Arg of perigee: 305.0568 deg Mean anomaly: 054.9517 deg Mean motion: 14.25590482 rev/day Decay rate: 1.9e-07 rev/day^2 Epoch rev: 95047 Checksum: 305
Satellite: MET-3/5 Catalog number: 21655 Epoch time: 09238.95243144 Element set: 0768 Inclination: 082.5582 deg RA of node: 156.5166 deg Eccentricity: 0.0014286 Arg of perigee: 009.5182 deg Mean anomaly: 350.6209 deg Mean motion: 13.17020690 rev/day Decay rate: 5.1e-07 rev/day^2 Epoch rev: 86694 Checksum: 312
Satellite: MET-2/21 Catalog number: 22782 Epoch time: 09238.75765694 Element set: 0549 Inclination: 082.5482 deg RA of node: 126.0426 deg Eccentricity: 0.0023065 Arg of perigee: 145.4884 deg Mean anomaly: 214.7786 deg Mean motion: 13.83639294 rev/day Decay rate: 2.2e-07 rev/day^2 Epoch rev: 80736 Checksum: 337
Satellite: OKEAN-4 Catalog number: 23317 Epoch time: 09239.70207422 Element set: 1 Inclination: 082.5378 deg RA of node: 267.7500 deg Eccentricity: 0.0023594 Arg of perigee: 125.8606 deg Mean anomaly: 234.4818 deg Mean motion: 14.82715323 rev/day Decay rate: -1.6e-07 rev/day^2 Epoch rev: 80296 Checksum: 289
Satellite: NOAA-14 Catalog number: 23455 Epoch time: 09238.66005906 Element set: 0736 Inclination: 098.9048 deg RA of node: 316.0801 deg Eccentricity: 0.0009165 Arg of perigee: 357.1268 deg Mean anomaly: 002.9852 deg Mean motion: 14.13767776 rev/day Decay rate: -2.26e-06 rev/day^2 Epoch rev: 75588 Checksum: 333
Satellite: NOAA-15 Catalog number: 25338 Epoch time: 09238.84119131 Element set: 0058 Inclination: 098.5904 deg RA of node: 226.5195 deg Eccentricity: 0.0010143 Arg of perigee: 206.9287 deg Mean anomaly: 153.1356 deg Mean motion: 14.24781511 rev/day Decay rate: 8.5e-07 rev/day^2 Epoch rev: 58683 Checksum: 310
